Weather History for Greenwood, MS

Change the Weather History Date:

Sunday, January 19, 2014

  Actual Average Record
Temperature  
Mean Temperature 41 °F 43 °F  
Max Temperature 53 °F 53 °F 78 °F (1972)
Min Temperature 29 °F 33 °F -2 °F (1977)
Degree Days  
Heating Degree Days 24 22  
Month to date heating degree days 491 418  
Since 1 July heating degree days 1702 1484  
Cooling Degree Days 0 0  
Month to date cooling degree days 0 0  
Year to date cooling degree days 0 0  
Moisture  
Dew Point 28 °F    
Average Humidity 64    
Maximum Humidity 92    
Minimum Humidity 35    
Precipitation  
Precipitation 0.00 in 0.14 in 3.59 in (1979)
Month to date precipitation 1.57 2.73  
Year to date precipitation 1.57 2.73  
Sea Level Pressure  
Sea Level Pressure 30.14 in    
Wind  
Wind Speed 4 mph (WSW)    
Max Wind Speed 10 mph    
Max Gust Speed 13 mph    
Visibility 10 miles    
Events      
T = Trace of Precipitation, MM = Missing Value Source: NWS Daily Summary

Daily Weather History Graph

Daily Weather History Graph

Search for Another Location

Airport:

Trip Planner

Search our weather history database for the weather conditions in past years. The results will help you decide how hot, cold, wet, or windy it might be!

Date:

Astronomy

Jan. 19, 2014 Rise Set
Actual Time 7:03 AM CST 5:19 PM CST
Civil Twilight 6:36 AM CST 5:46 PM CST
Nautical Twilight 6:06 AM CST 6:16 PM CST
Astronomical Twilight 5:36 AM CST 6:46 PM CST
Moon 8:44 PM CST (1/19) 8:44 AM CST (1/19)
Length of Visible Light 11h 09m
Length of Day
10h 15m
Waning Gibbous, 89% of the Moon is Illuminated
Jan 19
Waning Gibbous
Jan 23
Last Quarter
Jan 30
New
Feb 6
First Quarter
Feb 14
Full

Hourly Weather History & Observations

Time (CST) Temp. Windchill Dew Point Humidity Pressure Visibility Wind Dir Wind Speed Gust Speed Precip Events Conditions
12:53 AM 45.0 °F 42.6 °F 33.1 °F 63% 30.02 in 10.0 mi WSW 4.6 mph - N/A   Partly Cloudy
1:53 AM 41.0 °F 39.0 °F 30.9 °F 67% 30.04 in 10.0 mi West 3.5 mph - N/A   Clear
2:53 AM 44.1 °F 42.5 °F 30.0 °F 58% 30.07 in 10.0 mi NW 3.5 mph - N/A   Clear
3:53 AM 43.0 °F 40.3 °F 27.0 °F 53% 30.10 in 10.0 mi NW 4.6 mph - N/A   Clear
4:53 AM 39.0 °F 35.7 °F 26.1 °F 60% 30.10 in 10.0 mi NNW 4.6 mph - N/A   Clear
5:53 AM 33.1 °F - 26.1 °F 75% 30.13 in 10.0 mi Calm Calm - N/A   Clear
6:53 AM 30.0 °F - 25.0 °F 82% 30.17 in 10.0 mi Calm Calm - N/A   Clear
7:53 AM 33.1 °F - 28.0 °F 82% 30.20 in 10.0 mi Calm Calm - N/A   Clear
8:53 AM 41.0 °F 37.1 °F 28.9 °F 62% 30.21 in 10.0 mi North 5.8 mph - N/A   Clear
9:53 AM 44.1 °F 40.8 °F 27.0 °F 51% 30.25 in 10.0 mi NNE 5.8 mph - N/A   Clear
10:53 AM 46.0 °F 43.9 °F 26.1 °F 46% 30.25 in 10.0 mi WNW 4.6 mph - N/A   Clear
11:53 AM 48.0 °F - 26.1 °F 42% 30.23 in 10.0 mi SW 5.8 mph - N/A   Clear
12:53 PM 50.0 °F - 27.0 °F 41% 30.20 in 10.0 mi West 9.2 mph - N/A   Clear
1:53 PM 51.1 °F - 28.9 °F 43% 30.18 in 10.0 mi Variable 5.8 mph - N/A   Clear
2:53 PM 52.0 °F - 25.0 °F 35% 30.16 in 10.0 mi WNW 4.6 mph - N/A   Clear
3:53 PM 52.0 °F - 24.1 °F 34% 30.13 in 10.0 mi SSW 4.6 mph - N/A   Clear
4:53 PM 50.0 °F - 28.9 °F 44% 30.13 in 10.0 mi SSW 5.8 mph - N/A   Clear
5:53 PM 44.1 °F 42.5 °F 30.9 °F 60% 30.14 in 10.0 mi SW 3.5 mph - N/A   Clear
6:53 PM 39.0 °F 36.8 °F 32.0 °F 76% 30.14 in 10.0 mi South 3.5 mph - N/A   Clear
7:53 PM 37.0 °F 34.5 °F 32.0 °F 82% 30.13 in 10.0 mi SSW 3.5 mph - N/A   Clear
8:53 PM 35.1 °F - 30.0 °F 82% 30.12 in 10.0 mi Calm Calm - N/A   Clear
9:53 PM 32.0 °F 28.7 °F 30.0 °F 92% 30.12 in 10.0 mi South 3.5 mph - N/A   Clear
10:53 PM 39.0 °F 36.8 °F 28.9 °F 67% 30.12 in 10.0 mi South 3.5 mph - N/A   Clear
11:53 PM 37.0 °F 31.6 °F 28.0 °F 70% 30.09 in 10.0 mi South 6.9 mph - N/A   Clear